| time (UTC) | temp F | wind direction | speed knots | gust knots | rain 1hr in | rain 24hr in | rain mn in | humidity % | barometer mb |
| 20260508155237 | 56 | 286 | 0.0 | 2.6 | 0.00 | 0.00 | 0.00 | 13 | 1016.4 |
| 20260508154237 | 56 | 286 | 0.0 | 2.6 | 0.00 | 0.00 | 0.00 | 13 | 1016.3 |
| 20260508153737 | 56 | 286 | 0.0 | 0.0 | 0.00 | 0.00 | 0.00 | 14 | 1016.4 |
| 20260508153237 | 56 | 286 | 0.0 | 0.0 | 0.00 | 0.00 | 0.00 | 14 | 1016.4 |
| 20260508152237 | 55 | 286 | 0.0 | 0.0 | 0.00 | 0.00 | 0.00 | 14 | 1016.5 |
| 20260508151737 | 55 | 286 | 0.0 | 0.0 | 0.00 | 0.00 | 0.00 | 14 | 1016.4 |
| 20260508151236 | 55 | 286 | 0.0 | 0.0 | 0.00 | 0.00 | 0.00 | 14 | 1016.4 |
| 20260508150737 | 55 | 286 | 0.0 | 0.0 | 0.00 | 0.00 | 0.00 | 14 | 1016.3 |
| 20260508150237 | 55 | 286 | 0.0 | 0.0 | 0.00 | 0.00 | 0.00 | 14 | 1016.3 |
| 20260508145736 | 55 | 286 | 0.0 | 1.7 | 0.00 | 0.00 | 0.00 | 14 | 1016.3 |
| 20260508145236 | 55 | 286 | 0.0 | 1.7 | 0.00 | 0.00 | 0.00 | 14 | 1016.2 |
| 20260508144736 | 55 | 287 | 0.0 | 0.0 | 0.00 | 0.00 | 0.00 | 14 | 1016.3 |
| 20260508144236 | 55 | 287 | 0.0 | 0.0 | 0.00 | 0.00 | 0.00 | 14 | 1016.2 |
| 20260508143736 | 55 | 287 | 0.0 | 0.0 | 0.00 | 0.00 | 0.00 | 14 | 1016.3 |
| 20260508143236 | 55 | 287 | 0.0 | 0.0 | 0.00 | 0.00 | 0.00 | 14 | 1016.2 |
| 20260508142736 | 55 | 287 | 0.0 | 2.6 | 0.00 | 0.00 | 0.00 | 14 | 1016.3 |
| 20260508142236 | 55 | 287 | 0.0 | 2.6 | 0.00 | 0.00 | 0.00 | 14 | 1016.3 |
| 20260508141736 | 55 | 287 | 0.0 | 0.0 | 0.00 | 0.00 | 0.00 | 14 | 1016.3 |
| 20260508141236 | 55 | 287 | 0.0 | 0.0 | 0.00 | 0.00 | 0.00 | 14 | 1016.3 |
| 20260508140736 | 55 | 287 | 0.0 | 0.9 | 0.00 | 0.00 | 0.00 | 14 | 1016.3 |
| 20260508140236 | 55 | 287 | 0.0 | 0.9 | 0.00 | 0.00 | 0.00 | 14 | 1016.3 |
| 20260508135736 | 55 | 287 | 0.0 | 0.0 | 0.00 | 0.00 | 0.00 | 14 | 1016.2 |
| 20260508135235 | 55 | 287 | 0.0 | 0.0 | 0.00 | 0.00 | 0.00 | 14 | 1016.2 |
| 20260508134735 | 55 | 287 | 0.0 | 0.0 | 0.00 | 0.00 | 0.00 | 14 | 1016.1 |
| 20260508134235 | 55 | 287 | 0.0 | 0.0 | 0.00 | 0.00 | 0.00 | 14 | 1016.0 |
| 20260508133735 | 55 | 287 | 0.0 | 1.7 | 0.00 | 0.00 | 0.00 | 14 | 1016.0 |
| 20260508133236 | 55 | 287 | 0.0 | 2.6 | 0.00 | 0.00 | 0.00 | 14 | 1016.0 |
| 20260508132735 | 55 | 287 | 0.0 | 2.6 | 0.00 | 0.00 | 0.00 | 14 | 1015.9 |
| 20260508132235 | 55 | 287 | 2.6 | 2.6 | 0.00 | 0.00 | 0.00 | 14 | 1016.0 |
| 20260508131735 | 55 | 287 | 0.0 | 0.0 | 0.00 | 0.00 | 0.00 | 14 | 1016.0 |
| 20260508130235 | 55 | 287 | 0.0 | 0.0 | 0.00 | 0.00 | 0.00 | 14 | 1015.8 |
| 20260508125735 | 55 | 287 | 0.0 | 0.0 | 0.00 | 0.00 | 0.00 | 14 | 1015.9 |
| 20260508125235 | 55 | 287 | 0.0 | 0.0 | 0.00 | 0.00 | 0.00 | 14 | 1015.9 |
| 20260508124735 | 55 | 287 | 0.0 | 0.0 | 0.00 | 0.00 | 0.00 | 14 | 1015.9 |
| 20260508124235 | 55 | 287 | 0.0 | 0.0 | 0.00 | 0.00 | 0.00 | 14 | 1015.8 |
| 20260508123734 | 55 | 287 | 0.0 | 0.0 | 0.00 | 0.00 | 0.00 | 14 | 1015.8 |
| 20260508122734 | 54 | 287 | 0.0 | 0.0 | 0.00 | 0.00 | 0.00 | 14 | 1015.8 |
| 20260508122234 | 54 | 287 | 0.0 | 0.0 | 0.00 | 0.00 | 0.00 | 14 | 1015.8 |
| 20260508121735 | 55 | 287 | 0.0 | 0.0 | 0.00 | 0.00 | 0.00 | 14 | 1015.7 |
| 20260508121235 | 55 | 287 | 0.0 | 0.0 | 0.00 | 0.00 | 0.00 | 14 | 1015.8 |
| 20260508120734 | 55 | 287 | 0.0 | 0.0 | 0.00 | 0.00 | 0.00 | 14 | 1015.8 |
| 20260508120235 | 55 | 287 | 0.0 | 0.0 | 0.00 | 0.00 | 0.00 | 14 | 1015.7 |
| 20260508115734 | 55 | 287 | 0.0 | 0.0 | 0.00 | 0.00 | 0.00 | 14 | 1015.7 |
| 20260508115234 | 55 | 287 | 0.0 | 0.0 | 0.00 | 0.00 | 0.00 | 14 | 1015.7 |
| 20260508114734 | 55 | 287 | 0.0 | 0.0 | 0.00 | 0.00 | 0.00 | 14 | 1015.7 |
| 20260508113734 | 54 | 287 | 0.0 | 0.0 | 0.00 | 0.00 | 0.00 | 14 | 1015.7 |
| 20260508113235 | 54 | 287 | 0.0 | 0.0 | 0.00 | 0.00 | 0.00 | 14 | 1015.6 |
| 20260508112734 | 54 | 287 | 0.0 | 0.0 | 0.00 | 0.00 | 0.00 | 14 | 1015.7 |
| 20260508112234 | 54 | 287 | 0.0 | 0.0 | 0.00 | 0.00 | 0.00 | 14 | 1015.6 |
| 20260508111734 | 54 | 287 | 0.0 | 0.0 | 0.00 | 0.00 | 0.00 | 14 | 1015.6 |
| 20260508111234 | 55 | 287 | 0.0 | 0.0 | 0.00 | 0.00 | 0.00 | 14 | 1015.6 |
| 20260508110734 | 55 | 287 | 0.0 | 0.0 | 0.00 | 0.00 | 0.00 | 14 | 1015.6 |
| 20260508110235 | 55 | 287 | 0.0 | 0.0 | 0.00 | 0.00 | 0.00 | 14 | 1015.7 |
| 20260508105733 | 55 | 287 | 0.0 | 0.0 | 0.00 | 0.00 | 0.00 | 14 | 1015.9 |
| 20260508105234 | 55 | 287 | 0.0 | 0.0 | 0.00 | 0.00 | 0.00 | 14 | 1015.9 |
| 20260508104734 | 55 | 287 | 0.0 | 0.0 | 0.00 | 0.00 | 0.00 | 14 | 1015.9 |
| 20260508104234 | 55 | 287 | 0.0 | 0.0 | 0.00 | 0.00 | 0.00 | 14 | 1015.9 |
| 20260508103233 | 55 | 287 | 0.0 | 0.0 | 0.00 | 0.00 | 0.00 | 13 | 1015.9 |
| 20260508102733 | 55 | 287 | 0.0 | 0.0 | 0.00 | 0.00 | 0.00 | 13 | 1015.9 |
| 20260508101233 | 55 | 287 | 0.0 | 0.0 | 0.00 | 0.00 | 0.00 | 14 | 1016.0 |
| 20260508100733 | 55 | 287 | 0.0 | 0.0 | 0.00 | 0.00 | 0.00 | 14 | 1015.9 |
| 20260508100233 | 55 | 287 | 0.0 | 0.0 | 0.00 | 0.00 | 0.00 | 14 | 1015.9 |
| 20260508095733 | 55 | 287 | 0.0 | 0.0 | 0.00 | 0.00 | 0.00 | 14 | 1015.9 |
| 20260508094733 | 55 | 287 | 0.0 | 0.0 | 0.00 | 0.00 | 0.00 | 14 | 1015.9 |
| 20260508094233 | 55 | 287 | 0.0 | 0.0 | 0.00 | 0.00 | 0.00 | 14 | 1015.9 |
| 20260508093233 | 55 | 287 | 0.0 | 0.0 | 0.00 | 0.00 | 0.00 | 14 | 1015.9 |
| 20260508092733 | 55 | 287 | 0.0 | 0.0 | 0.00 | 0.00 | 0.00 | 14 | 1015.9 |
| 20260508091733 | 55 | 287 | 0.0 | 4.3 | 0.00 | 0.00 | 0.00 | 14 | 1015.8 |
| 20260508091233 | 55 | 287 | 0.0 | 4.3 | 0.00 | 0.00 | 0.00 | 14 | 1015.8 |
| 20260508090733 | 55 | 287 | 0.0 | 0.0 | 0.00 | 0.00 | 0.00 | 14 | 1015.8 |
| 20260508090233 | 55 | 287 | 0.0 | 0.0 | 0.00 | 0.00 | 0.00 | 14 | 1015.8 |
| 20260508085733 | 55 | 287 | 0.0 | 0.0 | 0.00 | 0.00 | 0.00 | 14 | 1015.7 |
| 20260508085233 | 55 | 287 | 0.0 | 0.0 | 0.00 | 0.00 | 0.00 | 14 | 1015.7 |
| 20260508084733 | 55 | 287 | 0.0 | 0.0 | 0.00 | 0.00 | 0.00 | 13 | 1015.8 |
| 20260508084233 | 55 | 287 | 0.0 | 0.0 | 0.00 | 0.00 | 0.00 | 13 | 1015.8 |
| 20260508083733 | 54 | 287 | 0.0 | 0.0 | 0.00 | 0.00 | 0.00 | 13 | 1015.8 |
| 20260508083232 | 54 | 287 | 0.0 | 0.0 | 0.00 | 0.00 | 0.00 | 13 | 1015.8 |
| 20260508082733 | 54 | 287 | 0.0 | 0.0 | 0.00 | 0.00 | 0.00 | 13 | 1015.9 |
| 20260508082232 | 54 | 287 | 0.0 | 0.0 | 0.00 | 0.00 | 0.00 | 13 | 1015.9 |
| 20260508081733 | 54 | 287 | 0.0 | 0.0 | 0.00 | 0.00 | 0.00 | 13 | 1015.9 |
| 20260508080733 | 54 | 287 | 0.0 | 0.0 | 0.00 | 0.00 | 0.00 | 13 | 1016.0 |
| 20260508080232 | 54 | 287 | 0.0 | 0.0 | 0.00 | 0.00 | 0.00 | 13 | 1016.0 |
| 20260508075732 | 54 | 287 | 0.0 | 0.0 | 0.00 | 0.00 | 0.00 | 13 | 1016.1 |
| 20260508075233 | 54 | 287 | 0.0 | 0.0 | 0.00 | 0.00 | 0.00 | 13 | 1016.0 |
| 20260508074733 | 54 | 287 | 0.0 | 0.0 | 0.00 | 0.00 | 0.00 | 13 | 1016.1 |
| 20260508074233 | 54 | 287 | 0.0 | 0.0 | 0.00 | 0.00 | 0.00 | 13 | 1016.1 |
| 20260508073733 | 54 | 287 | 0.0 | 0.0 | 0.00 | 0.00 | 0.00 | 13 | 1016.1 |
| 20260508073232 | 54 | 287 | 0.0 | 0.0 | 0.00 | 0.00 | 0.00 | 13 | 1016.0 |
| 20260508072732 | 54 | 287 | 0.0 | 0.0 | 0.00 | 0.00 | 0.00 | 13 | 1016.0 |
| 20260508072232 | 54 | 287 | 0.0 | 0.0 | 0.00 | 0.00 | 0.00 | 13 | 1016.1 |
| 20260508071732 | 54 | 287 | 0.0 | 0.0 | 0.00 | 0.00 | 0.00 | 13 | 1015.9 |
| 20260508070732 | 54 | 287 | 0.0 | 0.0 | 0.00 | 0.00 | 0.00 | 13 | 1015.9 |
| 20260508065732 | 54 | 287 | 0.0 | 0.0 | 0.00 | 0.00 | 0.00 | 13 | 1015.8 |
| 20260508065233 | 54 | 287 | 0.0 | 0.0 | 0.00 | 0.00 | 0.00 | 13 | 1015.8 |
| 20260508064732 | 54 | 287 | 0.0 | 0.0 | 0.00 | 0.00 | 0.00 | 13 | 1015.8 |
| 20260508064232 | 54 | 287 | 0.0 | 0.0 | 0.00 | 0.00 | 0.00 | 13 | 1015.8 |
| 20260508063733 | 54 | 287 | 0.0 | 0.0 | 0.00 | 0.00 | 0.00 | 13 | 1015.8 |
| 20260508063232 | 55 | 287 | 0.0 | 0.0 | 0.00 | 0.00 | 0.00 | 13 | 1015.9 |
| 20260508062732 | 55 | 287 | 0.0 | 0.0 | 0.00 | 0.00 | 0.00 | 13 | 1015.9 |
| 20260508062232 | 55 | 287 | 0.0 | 0.0 | 0.00 | 0.00 | 0.00 | 14 | 1015.8 |
| 20260508061232 | 55 | 287 | 0.0 | 0.0 | 0.00 | 0.00 | 0.00 | 14 | 1015.8 |
| 20260508060732 | 55 | 287 | 0.0 | 0.0 | 0.00 | 0.00 | 0.00 | 14 | 1015.9 |
| 20260508055732 | 56 | 287 | 0.0 | 0.0 | 0.00 | 0.00 | 0.00 | 14 | 1015.7 |
| 20260508054732 | 56 | 287 | 0.0 | 0.0 | 0.00 | 0.00 | 0.00 | 14 | 1015.7 |
| 20260508054232 | 56 | 287 | 0.0 | 0.0 | 0.00 | 0.00 | 0.00 | 14 | 1015.7 |
| 20260508053732 | 56 | 287 | 0.0 | 0.0 | 0.00 | 0.00 | 0.00 | 14 | 1015.6 |
| 20260508052732 | 56 | 287 | 0.0 | 0.0 | 0.00 | 0.00 | 0.00 | 14 | 1015.7 |
| 20260508052232 | 56 | 287 | 0.0 | 0.0 | 0.00 | 0.00 | 0.00 | 14 | 1015.7 |
| 20260508051732 | 56 | 287 | 0.0 | 0.0 | 0.00 | 0.00 | 0.00 | 14 | 1015.8 |
| 20260508051232 | 56 | 287 | 0.0 | 0.0 | 0.00 | 0.00 | 0.00 | 15 | 1015.8 |
| 20260508050732 | 56 | 287 | 0.0 | 0.0 | 0.00 | 0.00 | 0.00 | 15 | 1015.7 |
| 20260508050232 | 56 | 287 | 0.0 | 0.0 | 0.00 | 0.00 | 0.00 | 15 | 1015.7 |
| 20260508045732 | 57 | 287 | 0.0 | 0.0 | 0.00 | 0.00 | 0.00 | 15 | 1015.6 |
| 20260508045232 | 57 | 287 | 0.0 | 0.0 | 0.00 | 0.00 | 0.00 | 15 | 1015.6 |
| 20260508044732 | 57 | 287 | 0.0 | 0.0 | 0.00 | 0.00 | 0.00 | 15 | 1015.6 |
| 20260508044232 | 57 | 287 | 0.0 | 0.0 | 0.00 | 0.00 | 0.00 | 15 | 1015.6 |
| 20260508043731 | 57 | 287 | 0.0 | 0.0 | 0.00 | 0.00 | 0.00 | 16 | 1015.5 |
| 20260508042731 | 57 | 287 | 0.0 | 0.0 | 0.00 | 0.00 | 0.00 | 16 | 1015.5 |
| 20260508042232 | 57 | 287 | 0.0 | 3.5 | 0.00 | 0.00 | 0.00 | 16 | 1015.5 |
| 20260508041731 | 57 | 287 | 0.0 | 3.5 | 0.00 | 0.00 | 0.00 | 16 | 1015.4 |
| 20260508041231 | 57 | 287 | 0.0 | 0.0 | 0.00 | 0.00 | 0.00 | 16 | 1015.4 |
| 20260508040732 | 57 | 287 | 0.0 | 0.9 | 0.00 | 0.00 | 0.00 | 17 | 1015.3 |
| 20260508040231 | 57 | 287 | 0.0 | 2.6 | 0.00 | 0.00 | 0.00 | 17 | 1015.2 |
| 20260508035231 | 57 | 287 | 0.0 | 4.3 | 0.00 | 0.00 | 0.00 | 17 | 1015.1 |
| 20260508034731 | 58 | 287 | 0.0 | 3.5 | 0.00 | 0.00 | 0.00 | 18 | 1015.1 |
| 20260508033731 | 58 | 287 | 0.0 | 3.5 | 0.00 | 0.00 | 0.00 | 18 | 1015.0 |
| 20260508033231 | 58 | 287 | 0.0 | 2.6 | 0.00 | 0.00 | 0.00 | 19 | 1015.0 |
| 20260508032731 | 58 | 287 | 0.0 | 4.3 | 0.00 | 0.00 | 0.00 | 20 | 1015.0 |
| 20260508032231 | 58 | 288 | 0.0 | 4.3 | 0.00 | 0.00 | 0.00 | 21 | 1015.0 |
| 20260508031730 | 58 | 273 | 0.0 | 2.6 | 0.00 | 0.00 | 0.00 | 21 | 1014.8 |
| 20260508031231 | 58 | 273 | 0.0 | 2.6 | 0.00 | 0.00 | 0.00 | 22 | 1014.8 |
| 20260508030230 | 58 | 274 | 0.0 | 5.2 | 0.00 | 0.00 | 0.00 | 23 | 1014.8 |
| 20260508025731 | 59 | 291 | 0.0 | 5.2 | 0.00 | 0.00 | 0.00 | 25 | 1014.6 |
| 20260508025230 | 59 | 285 | 0.0 | 8.7 | 0.00 | 0.00 | 0.00 | 26 | 1014.6 |
| 20260508024230 | 60 | 265 | 1.7 | 6.1 | 0.00 | 0.00 | 0.00 | 28 | 1014.5 |
| 20260508023730 | 60 | 299 | 0.0 | 5.2 | 0.00 | 0.00 | 0.00 | 28 | 1014.5 |
| 20260508023230 | 60 | 288 | 0.9 | 5.2 | 0.00 | 0.00 | 0.00 | 28 | 1014.4 |
| 20260508022730 | 60 | 288 | 0.0 | 5.2 | 0.00 | 0.00 | 0.00 | 29 | 1014.3 |
| 20260508022230 | 61 | 284 | 0.0 | 5.2 | 0.00 | 0.00 | 0.00 | 30 | 1014.3 |
| 20260508021730 | 61 | 305 | 0.0 | 5.2 | 0.00 | 0.00 | 0.00 | 31 | 1014.2 |
| 20260508020729 | 62 | 325 | 0.0 | 7.8 | 0.00 | 0.00 | 0.00 | 34 | 1014.1 |
| 20260508020230 | 62 | 322 | 0.9 | 8.7 | 0.00 | 0.00 | 0.00 | 36 | 1014.0 |
| 20260508015730 | 63 | 74 | 0.0 | 9.6 | 0.00 | 0.00 | 0.00 | 39 | 1014.0 |
| 20260508015229 | 64 | 320 | 5.2 | 9.6 | 0.00 | 0.00 | 0.00 | 41 | 1014.0 |
| 20260508014730 | 65 | 309 | 5.2 | 7.8 | 0.00 | 0.00 | 0.00 | 43 | 1014.1 |
| 20260508014230 | 66 | 287 | 0.9 | 6.1 | 0.00 | 0.00 | 0.00 | 44 | 1014.1 |
| 20260508013229 | 67 | 320 | 0.9 | 6.1 | 0.00 | 0.00 | 0.00 | 44 | 1013.9 |
| 20260508012730 | 68 | 294 | 0.0 | 7.8 | 0.00 | 0.00 | 0.00 | 45 | 1013.9 |
| 20260508012229 | 68 | 302 | 0.0 | 8.7 | 0.00 | 0.00 | 0.00 | 45 | 1013.9 |
| 20260508011729 | 69 | 272 | 0.9 | 8.7 | 0.00 | 0.00 | 0.00 | 45 | 1013.8 |
| 20260508011229 | 69 | 273 | 0.0 | 8.7 | 0.00 | 0.00 | 0.00 | 45 | 1013.8 |
| 20260508010229 | 70 | 284 | 7.8 | 8.7 | 0.00 | 0.00 | 0.00 | 45 | 1013.9 |
| 20260508004729 | 71 | 250 | 2.6 | 6.1 | 0.00 | 0.00 | 0.00 | 45 | 1013.7 |
| 20260508004228 | 71 | 296 | 3.5 | 8.7 | 0.00 | 0.00 | 0.00 | 45 | 1014.0 |
| 20260508003728 | 71 | 314 | 0.9 | 8.7 | 0.00 | 0.00 | 0.00 | 45 | 1013.8 |
| 20260508003229 | 72 | 237 | 0.9 | 9.6 | 0.00 | 0.00 | 0.00 | 45 | 1013.7 |
| 20260508002728 | 72 | 298 | 3.5 | 9.6 | 0.00 | 0.00 | 0.00 | 45 | 1013.7 |
| 20260508002229 | 72 | 180 | 1.7 | 9.6 | 0.00 | 0.00 | 0.00 | 45 | 1013.7 |
| 20260508001728 | 72 | 290 | 0.0 | 9.6 | 0.00 | 0.00 | 0.00 | 45 | 1013.7 |
| 20260508000728 | 73 | 293 | 1.7 | 6.1 | 0.00 | 0.00 | 0.00 | 45 | 1013.7 |
| 20260508000228 | 72 | 259 | 0.9 | 7.8 | 0.00 | 0.00 | 0.00 | 46 | 1013.7 |
| 20260507235228 | 73 | 261 | 0.9 | 12.2 | 0.00 | 0.00 | 0.00 | 46 | 1013.8 |
| 20260507234728 | 74 | 311 | 0.9 | 12.2 | 0.00 | 0.00 | 0.00 | 46 | 1013.6 |
| 20260507234228 | 74 | 288 | 3.5 | 11.3 | 0.00 | 0.00 | 0.00 | 46 | 1013.6 |
| 20260507233728 | 75 | 304 | 0.9 | 11.3 | 0.00 | 0.00 | 0.00 | 45 | 1013.5 |
| 20260507232728 | 76 | 264 | 0.0 | 10.4 | 0.00 | 0.00 | 0.00 | 45 | 1013.6 |
| 20260507232227 | 76 | 242 | 2.6 | 10.4 | 0.00 | 0.00 | 0.00 | 44 | 1013.6 |
| 20260507231727 | 77 | 249 | 4.3 | 8.7 | 0.00 | 0.00 | 0.00 | 44 | 1013.6 |
| 20260507231227 | 77 | 291 | 3.5 | 10.4 | 0.00 | 0.00 | 0.00 | 43 | 1013.6 |
| 20260507230227 | 78 | 264 | 3.5 | 8.7 | 0.00 | 0.00 | 0.00 | 43 | 1013.7 |
| 20260507225727 | 78 | 311 | 0.0 | 6.1 | 0.00 | 0.00 | 0.00 | 43 | 1013.6 |
| 20260507225227 | 78 | 262 | 4.3 | 6.1 | 0.00 | 0.00 | 0.00 | 43 | 1013.7 |
| 20260507224727 | 78 | 290 | 0.0 | 7.8 | 0.00 | 0.00 | 0.00 | 43 | 1013.7 |
| 20260507224227 | 77 | 259 | 3.5 | 8.7 | 0.00 | 0.00 | 0.00 | 43 | 1013.7 |
| 20260507223727 | 78 | 219 | 0.0 | 8.7 | 0.00 | 0.00 | 0.00 | 42 | 1013.8 |
| 20260507223227 | 78 | 315 | 2.6 | 9.6 | 0.00 | 0.00 | 0.00 | 43 | 1013.8 |
| 20260507222727 | 77 | 225 | 0.9 | 9.6 | 0.00 | 0.00 | 0.00 | 43 | 1013.8 |
| 20260507221227 | 78 | 241 | 0.0 | 11.3 | 0.00 | 0.00 | 0.00 | 43 | 1014.0 |
| 20260507220727 | 78 | 315 | 3.5 | 10.4 | 0.00 | 0.00 | 0.00 | 43 | 1014.0 |
| 20260507220227 | 78 | 235 | 4.3 | 10.4 | 0.00 | 0.00 | 0.00 | 42 | 1014.0 |
| 20260507215726 | 78 | 306 | 0.0 | 10.4 | 0.00 | 0.00 | 0.00 | 43 | 1014.0 |
| 20260507215226 | 78 | 262 | 3.5 | 12.2 | 0.00 | 0.00 | 0.00 | 42 | 1014.0 |
| 20260507214726 | 78 | 327 | 2.6 | 12.2 | 0.00 | 0.00 | 0.00 | 43 | 1014.1 |
| 20260507214226 | 77 | 309 | 7.8 | 13.9 | 0.00 | 0.00 | 0.00 | 43 | 1014.1 |
| 20260507213726 | 77 | 249 | 5.2 | 13.9 | 0.00 | 0.00 | 0.00 | 43 | 1014.2 |
| 20260507213226 | 78 | 272 | 3.5 | 9.6 | 0.00 | 0.00 | 0.00 | 43 | 1014.2 |
| 20260507212727 | 78 | 346 | 2.6 | 12.2 | 0.00 | 0.00 | 0.00 | 43 | 1014.2 |
| 20260507212226 | 78 | 311 | 1.7 | 12.2 | 0.00 | 0.00 | 0.00 | 43 | 1014.2 |
| 20260507211725 | 78 | 323 | 6.1 | 11.3 | 0.00 | 0.00 | 0.00 | 42 | 1014.1 |
| 20260507211226 | 79 | 320 | 5.2 | 11.3 | 0.00 | 0.00 | 0.00 | 42 | 1014.2 |
| 20260507205725 | 79 | 326 | 5.2 | 11.3 | 0.00 | 0.00 | 0.00 | 42 | 1014.3 |
| 20260507205225 | 79 | 234 | 4.3 | 11.3 | 0.00 | 0.00 | 0.00 | 42 | 1014.4 |
| 20260507204725 | 79 | 298 | 1.7 | 10.4 | 0.00 | 0.00 | 0.00 | 42 | 1014.4 |
| 20260507204225 | 79 | 279 | 5.2 | 9.6 | 0.00 | 0.00 | 0.00 | 41 | 1014.4 |
| 20260507203225 | 81 | 278 | 5.2 | 10.4 | 0.00 | 0.00 | 0.00 | 40 | 1014.6 |
| 20260507202724 | 81 | 313 | 0.0 | 8.7 | 0.00 | 0.00 | 0.00 | 40 | 1014.6 |
| 20260507202224 | 82 | 253 | 0.9 | 8.7 | 0.00 | 0.00 | 0.00 | 39 | 1014.6 |
| 20260507201725 | 81 | 298 | 0.0 | 7.8 | 0.00 | 0.00 | 0.00 | 39 | 1014.6 |
| 20260507201224 | 81 | 317 | 3.5 | 7.8 | 0.00 | 0.00 | 0.00 | 39 | 1014.7 |
| 20260507200725 | 81 | 223 | 0.0 | 7.8 | 0.00 | 0.00 | 0.00 | 39 | 1014.7 |
| 20260507200225 | 81 | 288 | 2.6 | 6.1 | 0.00 | 0.00 | 0.00 | 38 | 1014.7 |
| 20260507195724 | 81 | 306 | 0.0 | 7.8 | 0.00 | 0.00 | 0.00 | 38 | 1014.8 |
| 20260507195224 | 81 | 245 | 0.0 | 7.8 | 0.00 | 0.00 | 0.00 | 38 | 1014.9 |
| 20260507194724 | 80 | 306 | 0.0 | 7.8 | 0.00 | 0.00 | 0.00 | 38 | 1014.7 |
| 20260507194224 | 80 | 225 | 0.0 | 4.3 | 0.00 | 0.00 | 0.00 | 37 | 1014.8 |
| 20260507193724 | 80 | 307 | 2.6 | 5.2 | 0.00 | 0.00 | 0.00 | 37 | 1014.9 |
| 20260507193224 | 79 | 307 | 1.7 | 5.2 | 0.00 | 0.00 | 0.00 | 37 | 1014.9 |
| 20260507192724 | 78 | 310 | 1.7 | 7.8 | 0.00 | 0.00 | 0.00 | 37 | 1015.0 |
| 20260507192224 | 78 | 312 | 0.0 | 7.8 | 0.00 | 0.00 | 0.00 | 37 | 1015.0 |
| 20260507191724 | 77 | 247 | 0.9 | 4.3 | 0.00 | 0.00 | 0.00 | 37 | 1015.1 |
| 20260507191223 | 77 | 256 | 2.6 | 4.3 | 0.00 | 0.00 | 0.00 | 37 | 1015.2 |
| 20260507190724 | 77 | 187 | 0.0 | 3.5 | 0.00 | 0.00 | 0.00 | 37 | 1015.2 |
| 20260507190224 | 77 | 178 | 0.0 | 5.2 | 0.00 | 0.00 | 0.00 | 36 | 1015.2 |
| 20260507185723 | 76 | 171 | 1.7 | 5.2 | 0.00 | 0.00 | 0.00 | 36 | 1015.3 |
| 20260507185224 | 76 | 303 | 1.7 | 4.3 | 0.00 | 0.00 | 0.00 | 35 | 1015.3 |
| 20260507184723 | 76 | 307 | 1.7 | 3.5 | 0.00 | 0.00 | 0.00 | 34 | 1015.4 |
| 20260507184223 | 76 | 308 | 0.0 | 5.2 | 0.00 | 0.00 | 0.00 | 33 | 1015.4 |
| 20260507183223 | 74 | 308 | 4.3 | 6.1 | 0.00 | 0.00 | 0.00 | 31 | 1015.3 |
| 20260507182723 | 73 | 308 | 0.0 | 6.1 | 0.00 | 0.00 | 0.00 | 31 | 1015.4 |
| 20260507182223 | 72 | 309 | 4.3 | 4.3 | 0.00 | 0.00 | 0.00 | 31 | 1015.5 |
| 20260507181723 | 71 | 309 | 0.0 | 4.3 | 0.00 | 0.00 | 0.00 | 30 | 1015.4 |
| 20260507181223 | 71 | 311 | 1.7 | 3.5 | 0.00 | 0.00 | 0.00 | 30 | 1015.5 |
| 20260507180723 | 70 | 310 | 0.0 | 3.5 | 0.00 | 0.00 | 0.00 | 30 | 1015.6 |
| 20260507180223 | 69 | 310 | 2.6 | 3.5 | 0.00 | 0.00 | 0.00 | 29 | 1015.4 |
| 20260507175723 | 68 | 310 | 0.0 | 3.5 | 0.00 | 0.00 | 0.00 | 29 | 1015.5 |
| 20260507175223 | 68 | 311 | 3.5 | 3.5 | 0.00 | 0.00 | 0.00 | 28 | 1015.5 |
| 20260507174723 | 67 | 311 | 0.0 | 4.3 | 0.00 | 0.00 | 0.00 | 28 | 1015.6 |
| 20260507174222 | 66 | 312 | 1.7 | 4.3 | 0.00 | 0.00 | 0.00 | 27 | 1015.6 |
| 20260507173722 | 66 | 311 | 0.0 | 3.5 | 0.00 | 0.00 | 0.00 | 26 | 1015.7 |
| 20260507173222 | 65 | 313 | 0.0 | 4.3 | 0.00 | 0.00 | 0.00 | 25 | 1015.5 |
| 20260507172222 | 64 | 313 | 0.0 | 4.3 | 0.00 | 0.00 | 0.00 | 24 | 1015.7 |
| 20260507171722 | 63 | 314 | 0.9 | 4.3 | 0.00 | 0.00 | 0.00 | 23 | 1015.6 |
| 20260507171222 | 63 | 308 | 0.0 | 4.3 | 0.00 | 0.00 | 0.00 | 22 | 1015.7 |
| 20260507170722 | 63 | 308 | 0.0 | 5.2 | 0.00 | 0.00 | 0.00 | 21 | 1015.8 |
| 20260507170252 | 62 | 307 | 2.6 | 5.2 | 0.00 | 0.00 | 0.00 | 20 | 1015.8 |
| 20260507165751 | 62 | 164 | 0.0 | 5.2 | 0.00 | 0.00 | 0.00 | 18 | 1015.8 |
| 20260507165252 | 62 | 320 | 0.0 | 4.3 | 0.00 | 0.00 | 0.00 | 16 | 1015.8 |
| 20260507164751 | 62 | 320 | 0.0 | 4.3 | 0.00 | 0.00 | 0.00 | 14 | 1015.9 |
| 20260507164252 | 61 | 321 | 0.0 | 4.3 | 0.00 | 0.00 | 0.00 | 12 | 1015.9 |
| 20260507163751 | 60 | 321 | 1.7 | 2.6 | 0.00 | 0.00 | 0.00 | 12 | 1015.9 |
| 20260507162752 | 58 | 321 | 0.0 | 1.7 | 0.00 | 0.00 | 0.00 | 12 | 1016.0 |
| 20260507162251 | 58 | 325 | 0.0 | 0.0 | 0.00 | 0.00 | 0.00 | 13 | 1016.0 |
| 20260507161751 | 57 | 322 | 0.0 | 0.0 | 0.00 | 0.00 | 0.00 | 13 | 1015.9 |
| 20260507161252 | 57 | 322 | 0.0 | 0.0 | 0.00 | 0.00 | 0.00 | 13 | 1016.0 |
| 20260507160751 | 56 | 322 | 0.0 | 0.0 | 0.00 | 0.00 | 0.00 | 13 | 1016.0 |